| time (UTC) | temp F | wind direction | speed MPH | gust MPH | rain 1hr in | rain 24hr in | rain mn in | humidity % | barometer mb |
| 20260504160333 | 75 | 240 | 1.0 | 6.0 | 0.00 | 0.00 | 0.00 | 42 | 1000.1 |
| 20260504150833 | 72 | 267 | 0.0 | 4.0 | 0.00 | 0.00 | 0.00 | 48 | 1000.7 |
| 20260504150333 | 71 | 268 | 1.0 | 4.0 | 0.00 | 0.00 | 0.00 | 48 | 1000.7 |
| 20260504141333 | 68 | 225 | 0.0 | 3.0 | 0.00 | 0.00 | 0.00 | 56 | 1001.4 |
| 20260504140833 | 67 | 267 | 0.0 | 3.0 | 0.00 | 0.00 | 0.00 | 55 | 1001.4 |
| 20260504140333 | 67 | 234 | 1.0 | 4.0 | 0.00 | 0.00 | 0.00 | 55 | 1001.4 |
| 20260504130333 | 58 | 242 | 1.0 | 3.0 | 0.00 | 0.00 | 0.00 | 71 | 1002.2 |
| 20260504110333 | 48 | 0 | 0.0 | 0.0 | 0.00 | 0.00 | 0.00 | 88 | 1002.3 |
| 20260504100333 | 48 | 0 | 0.0 | 0.0 | 0.00 | 0.00 | 0.00 | 88 | 1002.6 |
| 20260504081833 | 50 | 0 | 0.0 | 0.0 | 0.00 | 0.00 | 0.00 | 82 | 1002.2 |
| 20260504081333 | 50 | 0 | 0.0 | 0.0 | 0.00 | 0.00 | 0.00 | 81 | 1002.3 |
| 20260504080833 | 51 | 0 | 0.0 | 0.0 | 0.00 | 0.00 | 0.00 | 81 | 1002.3 |
| 20260504080333 | 51 | 0 | 0.0 | 0.0 | 0.00 | 0.00 | 0.00 | 81 | 1002.3 |
| 20260504070333 | 55 | 0 | 0.0 | 0.0 | 0.00 | 0.00 | 0.00 | 73 | 1003.2 |
| 20260504050333 | 59 | 246 | 0.0 | 2.0 | 0.00 | 0.00 | 0.00 | 68 | 1004.0 |
| 20260504045833 | 59 | 0 | 0.0 | 0.0 | 0.00 | 0.00 | 0.00 | 68 | 1004.1 |
| 20260504045333 | 59 | 0 | 0.0 | 0.0 | 0.00 | 0.00 | 0.00 | 67 | 1004.0 |
| 20260504044833 | 59 | 0 | 0.0 | 0.0 | 0.00 | 0.00 | 0.00 | 67 | 1004.0 |
| 20260504044333 | 60 | 0 | 0.0 | 0.0 | 0.00 | 0.00 | 0.00 | 66 | 1004.0 |
| 20260504043833 | 60 | 0 | 0.0 | 0.0 | 0.00 | 0.00 | 0.00 | 66 | 1004.0 |
| 20260504043333 | 60 | 0 | 0.0 | 0.0 | 0.00 | 0.00 | 0.00 | 66 | 1003.9 |
| 20260504042833 | 60 | 0 | 0.0 | 0.0 | 0.00 | 0.00 | 0.00 | 66 | 1004.0 |
| 20260504042333 | 60 | 0 | 0.0 | 0.0 | 0.00 | 0.00 | 0.00 | 65 | 1004.1 |
| 20260504041833 | 60 | 0 | 0.0 | 0.0 | 0.00 | 0.00 | 0.00 | 65 | 1004.1 |
| 20260504041333 | 60 | 0 | 0.0 | 0.0 | 0.00 | 0.00 | 0.00 | 64 | 1004.1 |
| 20260504040833 | 61 | 246 | 0.0 | 2.0 | 0.00 | 0.00 | 0.00 | 64 | 1004.1 |
| 20260504040333 | 61 | 246 | 0.0 | 2.0 | 0.00 | 0.00 | 0.00 | 64 | 1004.2 |
| 20260504035833 | 61 | 250 | 0.0 | 2.0 | 0.00 | 0.00 | 0.00 | 63 | 1004.2 |
| 20260504035333 | 61 | 250 | 0.0 | 2.0 | 0.00 | 0.00 | 0.00 | 64 | 1004.2 |
| 20260504034833 | 61 | 250 | 0.0 | 2.0 | 0.00 | 0.00 | 0.00 | 63 | 1004.3 |
| 20260504034333 | 61 | 250 | 0.0 | 2.0 | 0.00 | 0.00 | 0.00 | 63 | 1004.3 |
| 20260504033833 | 61 | 252 | 0.0 | 2.0 | 0.00 | 0.00 | 0.00 | 63 | 1004.4 |
| 20260504033333 | 61 | 252 | 0.0 | 2.0 | 0.00 | 0.00 | 0.00 | 63 | 1004.5 |
| 20260504032833 | 61 | 0 | 0.0 | 0.0 | 0.00 | 0.00 | 0.00 | 63 | 1004.5 |
| 20260504032333 | 61 | 0 | 0.0 | 0.0 | 0.00 | 0.00 | 0.00 | 63 | 1004.6 |
| 20260504031833 | 62 | 252 | 0.0 | 1.0 | 0.00 | 0.00 | 0.00 | 63 | 1004.6 |
| 20260504031333 | 62 | 252 | 0.0 | 2.0 | 0.00 | 0.00 | 0.00 | 63 | 1004.7 |
| 20260504030833 | 62 | 252 | 0.0 | 2.0 | 0.00 | 0.00 | 0.00 | 62 | 1004.7 |
| 20260504030333 | 62 | 0 | 0.0 | 0.0 | 0.00 | 0.00 | 0.00 | 62 | 1004.7 |
| 20260504025833 | 62 | 0 | 0.0 | 0.0 | 0.00 | 0.00 | 0.00 | 62 | 1004.7 |
| 20260504025333 | 62 | 0 | 0.0 | 0.0 | 0.00 | 0.00 | 0.00 | 61 | 1004.7 |
| 20260504024833 | 63 | 0 | 0.0 | 0.0 | 0.00 | 0.00 | 0.00 | 61 | 1004.7 |
| 20260504024333 | 63 | 253 | 0.0 | 1.0 | 0.00 | 0.00 | 0.00 | 61 | 1004.6 |
| 20260504023833 | 63 | 253 | 0.0 | 1.0 | 0.00 | 0.00 | 0.00 | 60 | 1004.6 |
| 20260504023333 | 63 | 253 | 0.0 | 1.0 | 0.00 | 0.00 | 0.00 | 60 | 1004.5 |
| 20260504022833 | 63 | 255 | 0.0 | 1.0 | 0.00 | 0.00 | 0.00 | 59 | 1004.5 |
| 20260504022333 | 63 | 257 | 0.0 | 1.0 | 0.00 | 0.00 | 0.00 | 59 | 1004.6 |
| 20260504021833 | 63 | 258 | 0.0 | 1.0 | 0.00 | 0.00 | 0.00 | 59 | 1004.6 |
| 20260504021333 | 64 | 259 | 0.0 | 1.0 | 0.00 | 0.00 | 0.00 | 59 | 1004.6 |
| 20260504020833 | 64 | 259 | 0.0 | 2.0 | 0.00 | 0.00 | 0.00 | 58 | 1004.5 |
| 20260504020333 | 64 | 259 | 0.0 | 2.0 | 0.00 | 0.00 | 0.00 | 58 | 1004.5 |
| 20260504015833 | 64 | 261 | 0.0 | 2.0 | 0.00 | 0.00 | 0.00 | 58 | 1004.5 |
| 20260504015333 | 64 | 261 | 0.0 | 2.0 | 0.00 | 0.00 | 0.00 | 58 | 1004.4 |
| 20260504014833 | 64 | 264 | 0.0 | 2.0 | 0.00 | 0.00 | 0.00 | 58 | 1004.3 |
| 20260504014333 | 64 | 240 | 0.0 | 1.0 | 0.00 | 0.00 | 0.00 | 57 | 1004.3 |
| 20260504013833 | 64 | 196 | 0.0 | 2.0 | 0.00 | 0.00 | 0.00 | 57 | 1004.2 |
| 20260504013333 | 64 | 219 | 0.0 | 2.0 | 0.00 | 0.00 | 0.00 | 57 | 1004.2 |
| 20260504012833 | 64 | 239 | 0.0 | 2.0 | 0.00 | 0.00 | 0.00 | 57 | 1004.1 |
| 20260504012333 | 64 | 239 | 0.0 | 2.0 | 0.00 | 0.00 | 0.00 | 56 | 1004.0 |
| 20260504011833 | 65 | 233 | 0.0 | 1.0 | 0.00 | 0.00 | 0.00 | 56 | 1004.0 |
| 20260504011333 | 65 | 233 | 0.0 | 1.0 | 0.00 | 0.00 | 0.00 | 55 | 1004.0 |
| 20260504010833 | 66 | 233 | 0.0 | 1.0 | 0.00 | 0.00 | 0.00 | 54 | 1003.9 |
| 20260504010333 | 66 | 231 | 0.0 | 1.0 | 0.00 | 0.00 | 0.00 | 54 | 1004.0 |
| 20260504005833 | 66 | 231 | 0.0 | 1.0 | 0.00 | 0.00 | 0.00 | 53 | 1003.9 |
| 20260504005333 | 67 | 231 | 0.0 | 1.0 | 0.00 | 0.00 | 0.00 | 53 | 1004.0 |
| 20260504004833 | 67 | 230 | 0.0 | 1.0 | 0.00 | 0.00 | 0.00 | 52 | 1004.0 |
| 20260504004333 | 67 | 254 | 0.0 | 3.0 | 0.00 | 0.00 | 0.00 | 51 | 1004.0 |
| 20260504003833 | 67 | 254 | 1.0 | 6.0 | 0.00 | 0.00 | 0.00 | 51 | 1004.0 |
| 20260504003333 | 68 | 227 | 1.0 | 6.0 | 0.00 | 0.00 | 0.00 | 50 | 1004.0 |
| 20260504002833 | 68 | 218 | 0.0 | 2.0 | 0.00 | 0.00 | 0.00 | 50 | 1004.0 |
| 20260504002333 | 68 | 223 | 1.0 | 3.0 | 0.00 | 0.00 | 0.00 | 50 | 1004.0 |
| 20260504001833 | 68 | 262 | 1.0 | 4.0 | 0.00 | 0.00 | 0.00 | 50 | 1004.0 |
| 20260504001333 | 68 | 231 | 1.0 | 6.0 | 0.00 | 0.00 | 0.00 | 50 | 1004.0 |
| 20260504000833 | 68 | 215 | 1.0 | 6.0 | 0.00 | 0.00 | 0.00 | 50 | 1003.9 |
| 20260504000333 | 68 | 277 | 1.0 | 4.0 | 0.00 | 0.00 | 0.00 | 49 | 1004.0 |
| 20260503235833 | 68 | 249 | 0.0 | 4.0 | 0.00 | 0.00 | 0.00 | 50 | 1004.0 |
| 20260503235333 | 68 | 222 | 1.0 | 5.0 | 0.00 | 0.00 | 0.00 | 49 | 1004.0 |
| 20260503234833 | 69 | 215 | 1.0 | 5.0 | 0.00 | 0.00 | 0.00 | 49 | 1003.9 |
| 20260503234333 | 68 | 254 | 1.0 | 4.0 | 0.00 | 0.00 | 0.00 | 49 | 1004.0 |
| 20260503233833 | 69 | 200 | 1.0 | 4.0 | 0.00 | 0.00 | 0.00 | 48 | 1004.0 |
| 20260503233333 | 69 | 244 | 1.0 | 4.0 | 0.00 | 0.00 | 0.00 | 48 | 1004.0 |
| 20260503232833 | 69 | 241 | 1.0 | 4.0 | 0.00 | 0.00 | 0.00 | 48 | 1004.0 |
| 20260503232333 | 68 | 274 | 1.0 | 4.0 | 0.00 | 0.00 | 0.00 | 48 | 1004.1 |
| 20260503231833 | 68 | 259 | 1.0 | 4.0 | 0.00 | 0.00 | 0.00 | 48 | 1004.1 |
| 20260503231333 | 68 | 246 | 1.0 | 5.0 | 0.00 | 0.00 | 0.00 | 48 | 1004.2 |
| 20260503230833 | 68 | 193 | 2.0 | 5.0 | 0.00 | 0.00 | 0.00 | 48 | 1004.2 |
| 20260503230333 | 68 | 205 | 1.0 | 8.0 | 0.00 | 0.00 | 0.00 | 47 | 1004.2 |
| 20260503225833 | 68 | 240 | 2.0 | 8.0 | 0.00 | 0.00 | 0.00 | 47 | 1004.2 |
| 20260503225333 | 68 | 243 | 2.0 | 6.0 | 0.00 | 0.00 | 0.00 | 47 | 1004.3 |
| 20260503224833 | 68 | 201 | 2.0 | 7.0 | 0.00 | 0.00 | 0.00 | 47 | 1004.5 |
| 20260503224333 | 68 | 204 | 2.0 | 7.0 | 0.00 | 0.00 | 0.00 | 46 | 1004.5 |
| 20260503223833 | 68 | 206 | 3.0 | 7.0 | 0.00 | 0.00 | 0.00 | 46 | 1004.5 |
| 20260503223333 | 68 | 217 | 2.0 | 6.0 | 0.00 | 0.00 | 0.00 | 47 | 1004.7 |
| 20260503222833 | 68 | 194 | 2.0 | 5.0 | 0.00 | 0.00 | 0.00 | 46 | 1004.7 |
| 20260503222333 | 68 | 222 | 1.0 | 7.0 | 0.00 | 0.00 | 0.00 | 47 | 1004.8 |
| 20260503221833 | 68 | 212 | 2.0 | 8.0 | 0.00 | 0.00 | 0.00 | 46 | 1004.9 |
| 20260503221333 | 68 | 258 | 2.0 | 8.0 | 0.00 | 0.00 | 0.00 | 46 | 1004.9 |
| 20260503220833 | 68 | 247 | 2.0 | 7.0 | 0.00 | 0.00 | 0.00 | 46 | 1005.0 |
| 20260503220333 | 68 | 200 | 2.0 | 7.0 | 0.00 | 0.00 | 0.00 | 47 | 1005.0 |
| 20260503215833 | 68 | 214 | 2.0 | 7.0 | 0.00 | 0.00 | 0.00 | 46 | 1005.0 |
| 20260503215333 | 68 | 240 | 3.0 | 12.0 | 0.00 | 0.00 | 0.00 | 45 | 1005.1 |
| 20260503214833 | 68 | 207 | 4.0 | 12.0 | 0.00 | 0.00 | 0.00 | 45 | 1005.0 |
| 20260503214333 | 68 | 209 | 2.0 | 9.0 | 0.00 | 0.00 | 0.00 | 45 | 1005.2 |
| 20260503213833 | 68 | 239 | 2.0 | 9.0 | 0.00 | 0.00 | 0.00 | 45 | 1005.3 |
| 20260503213333 | 68 | 223 | 2.0 | 10.0 | 0.00 | 0.00 | 0.00 | 45 | 1005.3 |
| 20260503212833 | 68 | 183 | 1.0 | 10.0 | 0.00 | 0.00 | 0.00 | 44 | 1005.2 |
| 20260503212333 | 68 | 224 | 3.0 | 11.0 | 0.00 | 0.00 | 0.00 | 45 | 1005.4 |
| 20260503211833 | 68 | 256 | 3.0 | 11.0 | 0.00 | 0.00 | 0.00 | 44 | 1005.5 |
| 20260503211333 | 68 | 245 | 1.0 | 9.0 | 0.00 | 0.00 | 0.00 | 44 | 1005.6 |
| 20260503210833 | 68 | 234 | 2.0 | 9.0 | 0.00 | 0.00 | 0.00 | 45 | 1005.6 |
| 20260503210333 | 68 | 231 | 4.0 | 11.0 | 0.00 | 0.00 | 0.00 | 43 | 1005.6 |
| 20260503205833 | 68 | 201 | 2.0 | 11.0 | 0.00 | 0.00 | 0.00 | 45 | 1005.6 |
| 20260503205333 | 68 | 255 | 1.0 | 12.0 | 0.00 | 0.00 | 0.00 | 45 | 1005.9 |
| 20260503204833 | 67 | 228 | 3.0 | 12.0 | 0.00 | 0.00 | 0.00 | 45 | 1005.9 |
| 20260503204333 | 66 | 224 | 2.0 | 9.0 | 0.00 | 0.00 | 0.00 | 47 | 1006.0 |
| 20260503203833 | 66 | 266 | 2.0 | 9.0 | 0.00 | 0.00 | 0.00 | 47 | 1006.1 |
| 20260503203333 | 66 | 260 | 2.0 | 9.0 | 0.00 | 0.00 | 0.00 | 48 | 1006.3 |
| 20260503202833 | 66 | 213 | 3.0 | 9.0 | 0.00 | 0.00 | 0.00 | 47 | 1006.4 |
| 20260503202333 | 66 | 205 | 3.0 | 10.0 | 0.00 | 0.00 | 0.00 | 48 | 1006.6 |
| 20260503201833 | 66 | 199 | 4.0 | 10.0 | 0.00 | 0.00 | 0.00 | 47 | 1006.7 |
| 20260503201333 | 66 | 213 | 0.0 | 9.0 | 0.00 | 0.00 | 0.00 | 49 | 1006.9 |
| 20260503200833 | 66 | 213 | 2.0 | 9.0 | 0.00 | 0.00 | 0.00 | 50 | 1006.9 |
| 20260503200333 | 66 | 211 | 1.0 | 9.0 | 0.00 | 0.00 | 0.00 | 53 | 1007.0 |
| 20260503195833 | 65 | 252 | 3.0 | 9.0 | 0.00 | 0.00 | 0.00 | 53 | 1007.0 |
| 20260503195333 | 65 | 271 | 1.0 | 11.0 | 0.00 | 0.00 | 0.00 | 53 | 1007.3 |
| 20260503194833 | 65 | 199 | 3.0 | 11.0 | 0.00 | 0.00 | 0.00 | 52 | 1007.3 |
| 20260503194333 | 65 | 226 | 2.0 | 9.0 | 0.00 | 0.00 | 0.00 | 52 | 1007.3 |
| 20260503193833 | 64 | 208 | 2.0 | 8.0 | 0.00 | 0.00 | 0.00 | 53 | 1007.3 |
| 20260503193333 | 64 | 197 | 3.0 | 8.0 | 0.00 | 0.00 | 0.00 | 52 | 1007.4 |
| 20260503192333 | 63 | 198 | 3.0 | 11.0 | 0.00 | 0.00 | 0.00 | 52 | 1007.6 |
| 20260503191833 | 62 | 190 | 4.0 | 11.0 | 0.00 | 0.00 | 0.00 | 53 | 1007.7 |
| 20260503191333 | 62 | 203 | 3.0 | 9.0 | 0.00 | 0.00 | 0.00 | 54 | 1007.6 |
| 20260503190833 | 61 | 201 | 3.0 | 9.0 | 0.00 | 0.00 | 0.00 | 56 | 1007.8 |
| 20260503190333 | 61 | 193 | 2.0 | 7.0 | 0.00 | 0.00 | 0.00 | 56 | 1007.9 |
| 20260503185833 | 60 | 227 | 3.0 | 8.0 | 0.00 | 0.00 | 0.00 | 56 | 1007.8 |
| 20260503185333 | 60 | 201 | 3.0 | 8.0 | 0.00 | 0.00 | 0.00 | 57 | 1007.9 |
| 20260503184833 | 60 | 210 | 3.0 | 8.0 | 0.00 | 0.00 | 0.00 | 57 | 1008.0 |
| 20260503184333 | 60 | 223 | 2.0 | 6.0 | 0.00 | 0.00 | 0.00 | 58 | 1008.1 |
| 20260503183833 | 60 | 195 | 2.0 | 5.0 | 0.00 | 0.00 | 0.00 | 59 | 1008.2 |
| 20260503183333 | 59 | 190 | 2.0 | 10.0 | 0.00 | 0.00 | 0.00 | 61 | 1008.3 |
| 20260503182833 | 59 | 188 | 3.0 | 10.0 | 0.00 | 0.00 | 0.00 | 61 | 1008.3 |
| 20260503182333 | 58 | 211 | 3.0 | 8.0 | 0.00 | 0.00 | 0.00 | 61 | 1008.6 |
| 20260503181833 | 58 | 206 | 2.0 | 7.0 | 0.00 | 0.00 | 0.00 | 62 | 1008.7 |
| 20260503181333 | 57 | 214 | 2.0 | 8.0 | 0.00 | 0.00 | 0.00 | 63 | 1008.9 |
| 20260503180832 | 57 | 227 | 1.0 | 8.0 | 0.00 | 0.00 | 0.00 | 63 | 1009.1 |
| 20260503180333 | 57 | 202 | 3.0 | 9.0 | 0.00 | 0.00 | 0.00 | 63 | 1009.3 |
| 20260503175833 | 56 | 226 | 4.0 | 9.0 | 0.00 | 0.00 | 0.00 | 64 | 1009.5 |
| 20260503175333 | 56 | 211 | 3.0 | 8.0 | 0.00 | 0.00 | 0.00 | 64 | 1009.7 |
| 20260503174833 | 56 | 259 | 2.0 | 10.0 | 0.00 | 0.00 | 0.00 | 66 | 1009.9 |
| 20260503173833 | 55 | 217 | 2.0 | 11.0 | 0.00 | 0.00 | 0.00 | 66 | 1010.3 |
| 20260503173333 | 55 | 242 | 2.0 | 8.0 | 0.00 | 0.00 | 0.00 | 67 | 1010.4 |
| 20260503172833 | 55 | 235 | 2.0 | 11.0 | 0.00 | 0.00 | 0.00 | 69 | 1010.4 |
| 20260503172333 | 54 | 229 | 3.0 | 11.0 | 0.00 | 0.00 | 0.00 | 69 | 1010.7 |
| 20260503171833 | 54 | 225 | 2.0 | 11.0 | 0.00 | 0.00 | 0.00 | 69 | 1010.6 |
| 20260503171333 | 54 | 209 | 3.0 | 10.0 | 0.00 | 0.00 | 0.00 | 70 | 1010.7 |
| 20260503170833 | 54 | 232 | 2.0 | 8.0 | 0.00 | 0.00 | 0.00 | 70 | 1010.8 |
| 20260503170333 | 54 | 203 | 2.0 | 8.0 | 0.00 | 0.00 | 0.00 | 71 | 1011.0 |